Date,TemperatureHighF,TemperatureAvgF,TemperatureLowF,DewpointHighF,DewpointAvgF,DewpointLowF,HumidityHigh,HumidityAvg,HumidityLow,PressureMaxIn,PressureMinIn,WindSpeedMaxMPH,WindSpeedAvgMPH,GustSpeedMaxMPH,PrecipitationSumIn
2013-2-8,32,27,19,32,24,-100,99,95,96,0.00,40.00,20,-18,0,0.65
2013-2-9,23,19,15,21,16,6,97,88,65,0.00,40.00,22,10,0,0.00
2013-2-10,38,20,13,8,4,2,64,50,24,0.00,40.00,11,5,0,0.00
2013-2-11,46,36,25,45,31,11,99,82,53,0.00,40.00,11,4,0,0.37
2013-2-12,46,40,36,40,30,26,99,70,47,0.00,40.00,22,9,0,0.09
2013-2-13,46,37,31,29,25,22,77,61,43,0.00,40.00,10,4,0,0.00
2013-2-14,35,35,34,29,27,24,78,73,66,0.00,40.00,4,2,0,0.00
2013-2-16,40,37,32,32,24,18,82,60,52,0.00,40.00,9,5,0,0.03
2013-2-17,31,22,18,20,12,1,93,66,42,0.00,40.00,24,12,0,0.65
2013-2-18,34,24,15,3,1,-3,52,37,21,0.00,40.00,25,12,0,0.26
2013-2-19,48,38,25,44,25,2,98,60,37,0.00,40.00,15,6,0,0.55
2013-2-20,44,34,27,42,20,10,95,59,38,0.00,40.00,22,10,0,0.11
2013-2-21,35,28,25,16,13,10,64,54,39,0.00,40.00,16,9,0,0.00
2013-2-22,27,26,26,18,17,16,68,66,64,0.00,40.00,9,6,0,0.00
2013-2-23,40,37,34,35,32,30,97,84,67,0.00,40.00,12,6,0,0.33
2013-2-24,39,35,31,38,35,31,99,97,94,0.00,40.00,13,5,0,0.96
2013-2-25,44,36,30,33,30,26,99,79,56,0.00,40.00,9,3,0,0.24
2013-2-26,44,39,32,33,30,26,97,71,53,0.00,40.00,15,6,0,0.00
2013-2-27,42,41,39,41,39,32,99,94,75,0.00,40.00,21,11,0,4.21
2013-2-28,50,40,34,40,36,34,99,88,60,0.00,40.00,7,4,0,0.00
2013-3-1,42,39,36,35,30,27,87,71,60,0.00,40.00,10,5,0,0.00
2013-3-2,46,39,33,30,27,25,72,63,50,0.00,40.00,12,5,0,0.00
2013-3-3,43,37,33,32,27,24,82,68,61,0.00,40.00,10,5,0,0.00
2013-3-4,42,35,31,29,24,21,86,64,47,0.00,40.00,21,10,0,0.01
2013-3-5,46,38,32,34,28,22,79,66,52,0.00,40.00,17,6,0,0.00
2013-3-6,40,38,36,36,33,29,91,82,64,0.00,40.00,27,12,0,1.18
2013-3-7,37,33,31,32,30,29,96,90,72,0.00,40.00,18,8,0,0.27
2013-3-8,42,34,30,32,28,22,97,80,50,0.00,40.00,19,6,0,0.64
2013-3-9,46,38,31,31,27,21,91,65,51,0.00,40.00,10,5,0,0.12
2013-3-10,43,36,29,32,30,27,95,80,61,0.00,40.00,10,4,0,0.00
2013-3-11,54,43,36,40,36,32,91,76,57,0.00,40.00,13,6,0,0.00
2013-3-12,57,51,42,53,48,40,95,88,76,0.00,40.00,20,8,0,0.55
2013-3-13,54,48,39,51,30,20,96,52,31,0.00,40.00,17,7,0,0.00
2013-3-14,38,31,24,20,11,6,49,43,37,0.00,40.00,17,10,0,0.01
2013-3-15,43,31,20,26,12,4,66,46,23,0.00,40.00,15,8,0,0.00
2013-3-16,45,35,29,26,15,7,67,44,22,0.00,40.00,13,5,0,0.00
2013-3-17,39,32,26,19,10,4,58,40,23,0.00,40.00,15,6,0,0.00
2013-3-18,38,29,20,27,10,0,94,47,27,0.00,40.00,12,5,0,0.00
2013-3-19,37,33,28,37,33,28,99,98,95,0.00,40.00,23,9,0,1.88
2013-3-20,42,33,25,27,22,18,97,66,38,0.00,40.00,20,8,0,0.11
2013-3-21,39,33,29,29,22,16,92,66,42,0.00,40.00,8,3,0,0.00
2013-3-22,42,37,31,28,20,15,89,51,35,0.00,40.00,17,7,0,0.00
2013-3-23,46,37,30,23,19,17,68,50,33,0.00,40.00,21,10,0,0.02
2013-3-24,52,40,32,30,24,20,68,52,34,0.00,40.00,13,6,0,0.00
2013-3-25,45,39,34,34,30,25,74,68,61,0.00,40.00,18,7,0,0.00
2013-3-26,54,42,34,32,25,19,91,53,26,0.00,40.00,13,5,0,0.06
2013-3-27,54,45,34,31,24,21,66,46,30,0.00,40.00,18,6,0,0.00
2013-3-28,48,43,38,35,32,29,88,67,48,0.00,40.00,10,4,0,0.00
2013-3-29,57,48,39,35,32,29,71,55,36,0.00,40.00,12,5,0,0.00
2013-3-30,60,49,39,32,26,14,70,46,17,0.00,40.00,10,5,0,0.00
2013-4-1,60,44,36,46,27,12,84,52,33,0.00,40.00,24,11,0,0.26
2013-4-2,42,36,31,17,13,9,49,40,28,0.00,40.00,27,10,0,0.16
2013-4-3,47,38,31,19,13,9,59,37,22,0.00,40.00,24,11,0,0.10
2013-4-4,59,42,31,26,17,10,55,38,16,0.00,40.00,16,8,0,0.00
2013-4-5,64,48,38,31,27,21,67,47,21,0.00,40.00,21,7,0,0.00
2013-4-6,52,41,33,26,10,2,56,31,15,0.00,40.00,14,6,0,0.00
2013-4-7,53,44,32,40,28,14,77,55,34,0.00,40.00,23,7,0,0.06
2013-4-8,68,54,45,43,40,36,90,63,32,0.00,40.00,11,5,0,0.00
2013-4-9,73,56,48,51,44,38,89,66,37,0.00,40.00,16,7,0,0.06
2013-4-10,63,52,47,48,44,41,87,73,55,0.00,40.00,11,4,0,0.20
2013-4-11,51,48,44,46,40,34,94,75,63,0.00,40.00,10,5,0,0.07
2013-4-12,44,40,38,39,36,29,96,84,63,0.00,40.00,21,10,0,1.10
2013-4-13,55,46,38,39,38,34,95,72,50,0.00,40.00,9,4,0,0.01
2013-4-14,54,48,42,40,31,26,78,52,36,0.00,40.00,16,7,0,0.00
2013-4-15,53,46,36,39,33,28,76,60,46,0.00,40.00,12,6,0,0.00
2013-4-16,64,53,41,49,42,35,88,67,47,0.00,40.00,21,9,0,0.00
2013-4-17,71,61,52,52,38,28,81,46,22,0.00,40.00,13,6,0,0.00
2013-4-18,66,55,48,43,35,28,68,48,32,0.00,40.00,17,7,0,0.00
2013-4-19,74,64,53,63,58,43,99,82,58,0.00,40.00,26,10,0,0.06
2013-4-20,66,55,46,63,42,25,95,64,36,0.00,40.00,20,8,0,0.96
2013-4-21,56,44,36,30,23,19,62,44,26,0.00,40.00,15,6,0,0.00
2013-4-22,50,44,36,35,31,24,76,61,36,0.00,40.00,20,8,0,0.02
2013-4-23,43,42,41,42,39,31,98,89,65,0.00,40.00,15,7,0,0.22
2013-4-24,76,56,42,52,46,42,98,73,33,0.00,40.00,15,7,0,0.01
2013-4-25,69,57,49,53,37,25,92,52,20,0.00,40.00,19,7,0,0.06
2013-4-26,57,51,46,42,36,30,82,58,46,0.00,40.00,15,6,0,0.00
2013-4-27,62,53,41,43,37,31,96,59,32,0.00,40.00,12,5,0,0.00
2013-4-28,68,56,42,42,36,28,82,49,29,0.00,40.00,15,5,0,0.00
2013-4-29,71,58,49,46,38,15,83,51,17,0.00,40.00,13,5,0,0.00
2013-4-30,67,57,46,39,30,15,68,40,14,0.00,40.00,12,4,0,0.00
2013-5-1,67,57,42,40,34,27,72,44,24,0.00,40.00,14,4,0,0.00
2013-5-2,76,57,47,49,42,35,84,59,27,0.00,40.00,17,5,0,0.00
2013-5-3,60,51,44,44,41,39,84,69,56,0.00,40.00,12,4,0,0.00
2013-5-4,56,50,43,44,40,38,88,70,57,0.00,40.00,16,5,0,0.00
2013-5-5,57,49,38,43,40,37,97,71,50,0.00,40.00,15,5,0,0.00
2013-5-6,62,52,42,50,45,40,99,80,57,0.00,40.00,12,4,0,0.00
2013-5-7,76,64,47,59,52,46,95,68,48,0.00,40.00,13,5,0,0.00
2013-5-8,70,62,56,62,58,54,97,85,70,0.00,40.00,14,5,0,0.36
2013-5-9,71,60,58,61,58,56,99,93,58,0.00,40.00,10,3,0,0.80
2013-5-10,80,67,56,60,57,55,99,74,46,0.00,40.00,12,4,0,0.00
2013-5-11,73,65,59,62,58,54,92,81,63,0.00,40.00,20,7,0,0.02
2013-5-12,76,63,52,60,52,30,97,71,38,0.00,40.00,19,6,0,0.09
2013-5-13,62,53,45,34,31,27,59,44,30,0.00,40.00,19,6,0,0.00
2013-5-14,63,52,42,36,31,28,67,46,29,0.00,40.00,13,4,0,0.00
2013-5-15,68,55,40,52,39,30,89,59,30,0.00,40.00,18,5,0,0.00
2013-5-16,84,72,52,52,42,33,96,40,20,0.00,40.00,19,7,0,0.00
2013-5-17,75,62,54,47,43,37,68,51,30,0.00,40.00,9,5,0,0.00
2013-5-18,74,62,48,49,45,38,88,55,27,0.00,40.00,13,5,0,0.00
2013-5-19,72,58,51,55,50,46,96,76,50,0.00,40.00,12,4,0,0.09
2013-5-20,85,68,56,66,61,55,99,81,51,0.00,40.00,10,4,0,0.43
2013-5-21,77,62,52,63,58,51,99,86,61,0.00,40.00,13,4,0,0.02
2013-5-22,66,58,51,60,54,51,98,87,74,0.00,40.00,12,5,0,0.02
2013-5-23,78,66,55,68,62,54,99,88,69,0.00,40.00,17,5,0,0.09
2013-5-24,72,64,50,67,62,50,99,93,76,0.00,40.00,12,5,0,1.60
2013-5-25,53,49,43,51,47,39,99,95,88,0.00,40.00,17,6,0,0.60
2013-5-26,61,50,40,42,40,38,96,70,47,0.00,40.00,19,8,0,0.02
2013-5-27,77,60,43,45,39,34,88,51,23,0.00,40.00,14,5,0,0.00
2013-5-28,73,62,48,54,47,40,90,61,38,0.00,40.00,11,4,0,0.00
2013-5-29,75,64,59,64,60,52,98,87,69,0.00,40.00,10,4,0,1.13
2013-5-30,91,78,64,69,67,64,99,70,48,0.00,40.00,14,5,0,0.01
2013-5-31,98,84,68,70,67,64,86,58,35,0.00,40.00,13,5,0,0.00
2013-6-1,96,83,70,69,66,62,75,57,39,0.00,40.00,20,6,0,0.00
2013-6-2,90,79,69,70,66,64,86,67,45,0.00,40.00,24,9,0,0.01
2013-6-3,79,70,65,68,64,46,96,80,48,0.00,40.00,10,4,0,0.69
2013-6-4,76,65,53,47,45,41,63,48,35,0.00,40.00,12,6,0,0.00
2013-6-5,77,66,54,52,47,43,75,51,33,0.00,40.00,9,4,0,0.00
2013-6-6,75,66,56,56,50,44,76,58,36,0.00,40.00,11,5,0,0.00
2013-6-7,61,57,55,57,54,48,99,91,70,0.00,40.00,15,6,0,4.59
2013-6-8,82,65,54,65,58,54,99,81,55,0.00,40.00,13,5,0,0.95
2013-6-9,84,72,60,58,56,54,88,61,38,0.00,40.00,14,4,0,0.00
2013-6-10,70,64,58,59,56,54,97,77,58,0.00,40.00,10,5,0,0.96
2013-6-11,67,60,56,60,58,56,99,92,75,0.00,40.00,18,4,0,2.31
2013-6-12,73,64,57,59,56,53,99,77,54,0.00,40.00,18,5,0,0.07
2013-6-13,72,60,53,57,53,51,96,80,54,0.00,40.00,9,4,0,0.91
2013-6-14,81,63,52,58,54,50,98,75,41,0.00,40.00,12,4,0,1.95
2013-6-15,85,71,59,54,48,42,83,48,24,0.00,40.00,13,4,0,0.00
2013-6-16,79,70,58,62,53,45,82,57,40,0.00,40.00,10,5,0,0.00
2013-6-17,89,72,62,64,60,57,95,69,35,0.00,40.00,12,5,0,0.20
2013-6-18,77,65,60,63,60,57,97,84,56,0.00,40.00,11,3,0,0.83
2013-6-19,77,66,56,59,52,44,95,63,36,0.00,40.00,13,4,0,0.01
2013-6-20,84,70,54,56,52,48,92,57,32,0.00,40.00,10,4,0,0.00
2013-6-21,89,74,60,64,58,53,80,60,38,0.00,40.00,10,5,0,0.00
2013-6-22,87,75,64,63,59,55,72,59,40,0.00,40.00,13,6,0,0.00
2013-6-23,92,79,66,72,64,56,75,63,49,0.00,40.00,14,6,0,0.00
2013-6-24,96,82,71,73,70,67,93,70,45,0.00,40.00,12,6,0,0.47
2013-6-25,94,82,70,72,68,66,93,66,43,0.00,40.00,13,6,0,0.00
2013-6-26,90,77,68,71,68,66,93,74,53,0.00,40.00,9,4,0,0.00
2013-6-27,71,66,63,66,64,62,96,91,79,0.00,40.00,10,4,0,0.01
2013-6-28,84,72,62,72,68,62,99,88,63,0.00,40.00,17,7,0,0.86
2013-6-29,84,76,71,70,69,67,94,80,60,0.00,40.00,13,7,0,0.00
2013-6-30,86,77,70,72,70,67,93,79,63,0.00,40.00,12,6,0,0.00
2013-7-1,86,77,72,74,72,70,96,86,68,0.00,40.00,12,5,0,0.05
2013-7-2,86,75,63,74,69,60,91,83,66,0.00,40.00,10,5,0,0.00
2013-7-3,93,79,64,75,69,61,91,74,55,0.00,40.00,14,6,0,0.00
2013-7-4,96,85,74,75,73,71,92,71,51,0.00,40.00,15,6,0,0.00
2013-7-5,96,87,78,75,73,71,81,66,48,0.00,40.00,11,6,0,0.00
2013-7-6,94,85,78,74,72,65,82,65,49,0.00,40.00,17,6,0,0.00
2013-7-7,96,83,75,74,69,64,83,65,49,0.00,40.00,11,4,0,0.00
2013-7-8,85,77,69,74,70,64,90,79,65,0.00,40.00,13,4,0,0.00
2013-7-9,76,70,66,67,65,63,93,83,72,0.00,40.00,8,3,0,0.00
2013-7-10,87,76,67,74,70,64,96,84,65,0.00,40.00,16,6,0,0.02
2013-7-11,84,78,74,74,71,68,92,80,67,0.00,40.00,8,4,0,0.21
2013-7-12,78,72,67,69,61,57,90,69,54,0.00,40.00,14,5,0,0.00
2013-7-13,77,71,67,68,65,62,92,83,73,0.00,40.00,7,4,0,0.00
2013-7-14,95,81,71,74,71,67,96,74,43,0.00,40.00,8,3,0,0.00
2013-7-15,94,84,74,73,72,70,91,68,48,0.00,40.00,7,2,0,0.00
2013-7-16,97,84,74,72,68,65,82,60,39,0.00,40.00,10,4,0,0.00
2013-7-17,98,86,75,74,70,66,79,61,39,0.00,40.00,11,4,0,0.00
2013-7-18,94,84,78,76,71,68,79,67,49,0.00,40.00,13,6,0,0.00
2013-7-19,99,89,78,77,74,72,84,65,43,0.00,40.00,19,7,0,0.00
2013-7-20,96,87,79,77,73,65,84,65,43,0.00,40.00,17,6,0,0.00
2013-7-21,84,77,73,68,64,60,83,66,52,0.00,40.00,13,5,0,0.04
2013-7-22,82,75,69,70,68,66,93,79,63,0.00,40.00,14,5,0,0.00
2013-7-23,82,73,70,76,71,67,97,92,79,0.00,40.00,18,4,0,2.63
2013-7-24,89,79,69,74,68,56,99,72,50,0.00,40.00,11,4,0,0.00
2013-7-25,68,63,60,59,55,49,96,77,60,0.00,40.00,10,4,0,0.54
2013-7-26,72,65,60,68,63,59,98,93,80,0.00,40.00,11,4,0,1.72
2013-7-27,87,74,61,67,64,60,95,72,46,0.00,40.00,11,5,0,0.00
2013-7-28,82,72,68,71,67,65,94,85,69,0.00,40.00,10,4,0,0.01
2013-7-29,85,74,68,72,68,65,96,83,62,0.00,40.00,9,3,0,0.58
2013-7-30,87,75,62,68,60,55,98,65,36,0.00,40.00,9,4,0,0.00
2013-7-31,84,75,64,64,60,56,81,62,41,0.00,40.00,9,3,0,0.00
2013-8-1,83,73,65,66,62,61,90,70,50,0.00,40.00,14,5,0,0.00
2013-8-2,86,74,65,68,63,58,96,70,42,0.00,40.00,13,4,0,0.31
2013-8-3,82,73,67,64,62,61,83,70,50,0.00,40.00,12,6,0,0.00
2013-8-4,84,72,62,61,57,55,79,61,39,0.00,40.00,11,4,0,0.00
2013-8-5,82,69,58,53,48,43,79,51,27,0.00,40.00,14,5,0,0.00
2013-8-6,80,69,54,56,51,46,79,55,36,0.00,40.00,9,3,0,0.00
2013-8-7,83,71,59,61,55,48,91,60,36,0.00,40.00,12,5,0,0.00
2013-8-8,84,73,66,71,66,54,90,77,62,0.00,40.00,11,6,0,0.14
2013-8-9,76,74,72,75,71,69,97,93,88,0.00,40.00,10,6,0,2.10
2013-8-10,86,77,68,72,62,54,97,65,38,0.00,40.00,12,6,0,0.00
2013-8-11,83,72,58,59,54,51,88,57,39,0.00,40.00,12,4,0,0.00
2013-8-12,87,74,63,64,59,54,84,62,38,0.00,40.00,9,4,0,0.00
2013-8-13,80,72,68,67,64,61,84,76,58,0.00,40.00,11,3,0,0.00
2013-8-14,77,69,63,64,55,51,90,63,43,0.00,40.00,17,6,0,0.00
2013-8-15,80,71,59,54,52,49,79,53,36,0.00,40.00,11,4,0,0.00
2013-8-16,85,71,57,58,54,52,82,58,33,0.00,40.00,10,4,0,0.00
2013-8-17,79,71,60,60,57,54,84,63,44,0.00,40.00,10,4,0,0.00
2013-8-18,82,73,63,63,60,57,86,65,44,0.00,40.00,8,3,0,0.00
2013-8-19,85,74,62,63,60,57,86,64,41,0.00,40.00,11,5,0,0.00
2013-8-20,90,78,66,65,62,59,81,59,36,0.00,40.00,8,3,0,0.00
2013-8-21,93,79,65,66,64,60,84,62,40,0.00,40.00,8,3,0,0.00
2013-8-22,88,77,68,72,67,63,89,72,52,0.00,40.00,12,6,0,0.00
2013-8-23,83,74,67,69,60,51,91,65,43,0.00,40.00,12,4,0,0.00
2013-8-24,77,68,57,52,48,41,75,50,31,0.00,40.00,15,4,0,0.00
2013-8-25,86,72,55,56,52,47,87,54,28,0.00,40.00,13,4,0,0.00
2013-8-26,84,74,67,67,62,57,78,68,53,0.00,40.00,14,5,0,0.00
2013-8-27,80,74,68,70,67,65,96,81,63,0.00,40.00,10,4,0,0.06
2013-8-28,81,72,64,68,65,62,96,79,58,0.00,40.00,11,5,0,0.00
2013-8-29,68,66,63,65,62,58,96,88,82,0.00,40.00,10,4,0,0.00
2013-8-30,86,72,63,69,64,58,86,75,56,0.00,40.00,9,4,0,0.00
2013-8-31,84,75,69,74,70,67,94,85,71,0.00,40.00,11,5,0,0.00
2013-9-1,81,74,70,76,71,67,95,91,83,0.00,40.00,9,4,0,0.76
2013-9-2,82,76,71,75,72,68,96,89,75,0.00,40.00,10,5,0,0.06
2013-9-3,82,75,67,72,68,59,98,81,62,0.00,40.00,12,4,0,0.00
2013-9-4,83,72,61,61,57,55,86,63,40,0.00,40.00,13,5,0,0.00
2013-9-5,69,64,55,63,57,46,92,78,66,0.00,40.00,11,3,0,0.14
2013-9-6,73,61,49,47,43,37,79,55,30,0.00,40.00,8,3,0,0.00
2013-9-7,81,67,53,57,50,44,77,57,35,0.00,40.00,11,4,0,0.00
2013-9-8,77,67,56,62,52,41,81,61,36,0.00,40.00,14,5,0,0.00
2013-9-9,71,60,47,51,45,41,82,59,37,0.00,40.00,11,4,0,0.00
2013-9-10,78,68,58,70,62,51,90,80,75,0.00,40.00,15,6,0,0.08
2013-9-11,97,82,70,77,72,68,98,75,42,0.00,40.00,13,5,0,0.00
2013-9-12,89,79,68,75,71,67,97,77,59,0.00,40.00,15,7,0,0.96
2013-9-13,82,70,61,68,65,55,98,85,60,0.00,40.00,8,3,0,0.34
2013-9-14,68,62,55,55,53,50,84,73,62,0.00,40.00,9,4,0,0.00
2013-9-15,75,62,50,53,50,46,95,68,42,0.00,40.00,9,4,0,0.00
2013-9-16,71,60,50,55,50,40,83,70,54,0.00,40.00,10,4,0,0.01
2013-9-17,68,54,43,45,39,36,80,59,38,0.00,40.00,9,3,0,0.00
2013-9-18,77,61,44,50,45,42,96,61,29,0.00,40.00,8,3,0,0.00
2013-9-19,81,65,50,55,52,46,86,64,39,0.00,40.00,9,3,0,0.00
2013-9-20,79,66,52,59,55,51,95,72,43,0.00,40.00,9,3,0,0.00
2013-9-21,77,67,57,66,61,55,99,81,60,0.00,40.00,19,6,0,0.00
2013-9-22,74,67,55,67,58,47,95,75,46,0.00,40.00,19,6,0,0.54
2013-9-23,66,56,47,46,42,40,79,63,46,0.00,40.00,11,5,0,0.00
2013-9-24,72,56,44,46,42,39,84,63,38,0.00,40.00,11,4,0,0.00
2013-9-25,66,57,48,50,47,44,87,70,53,0.00,40.00,13,4,0,0.00
2013-9-26,67,60,55,51,49,46,78,68,51,0.00,40.00,10,3,0,0.00
2013-9-27,69,60,53,54,51,49,85,72,54,0.00,40.00,9,3,0,0.00
2013-9-28,73,60,50,58,53,49,98,80,55,0.00,40.00,11,3,0,0.00
2013-9-29,67,57,49,56,51,47,99,82,53,0.00,40.00,10,3,0,0.00
2013-9-30,68,58,51,54,51,49,99,80,54,0.00,40.00,7,2,0,0.00
2013-10-1,82,63,49,55,52,48,99,71,36,0.00,40.00,9,2,0,0.00
2013-10-2,83,69,58,62,58,54,86,69,50,0.00,40.00,17,5,0,0.00
2013-10-3,81,68,56,58,51,46,88,58,30,0.00,40.00,9,3,0,0.00
2013-10-4,68,62,54,59,54,50,86,74,63,0.00,40.00,4,2,0,0.08
2013-10-5,70,64,59,58,57,55,91,79,61,0.00,40.00,8,3,0,0.00
2013-10-6,62,58,56,58,56,54,97,93,79,0.00,40.00,11,4,0,0.54
2013-10-7,77,68,59,71,65,55,99,90,76,0.00,40.00,26,7,0,0.06
2013-10-8,69,60,52,55,45,38,80,60,36,0.00,40.00,9,4,0,0.00
2013-10-9,62,54,45,48,45,40,91,70,49,0.00,40.00,12,4,0,0.00
2013-10-10,64,56,46,54,51,45,97,83,69,0.00,40.00,8,3,0,0.00
2013-10-11,71,59,51,57,51,46,99,77,43,0.00,40.00,10,3,0,0.00
2013-10-12,61,56,51,57,53,48,98,88,80,0.00,40.00,19,4,0,0.00
2013-10-13,62,55,45,51,47,44,95,77,58,0.00,40.00,11,4,0,0.00
2013-10-14,66,52,39,51,45,38,99,78,35,0.00,40.00,8,2,0,0.00
2013-10-15,68,58,49,55,51,47,95,78,59,0.00,40.00,10,3,0,0.00
2013-10-16,66,58,51,57,54,50,99,88,74,0.00,40.00,6,2,0,0.00
2013-10-17,74,63,54,62,58,54,99,86,64,0.00,40.00,9,4,0,0.00
2013-10-18,70,62,51,62,52,43,97,72,43,0.00,40.00,16,6,0,0.07
2013-10-19,68,58,47,48,44,40,78,61,40,0.00,40.00,11,4,0,0.00
2013-10-20,64,56,48,51,41,33,92,60,33,0.00,40.00,16,5,0,0.00
2013-10-21,69,55,40,45,40,35,87,60,37,0.00,40.00,10,4,0,0.00
2013-10-22,70,59,49,53,47,38,81,67,50,0.00,40.00,13,5,0,0.00
2013-10-23,54,48,40,38,35,33,83,62,44,0.00,40.00,7,2,0,0.00
2013-10-24,56,47,40,36,30,25,77,54,33,0.00,40.00,13,6,0,0.00
2013-10-25,52,44,37,35,30,27,80,58,39,0.00,40.00,12,5,0,0.00
2013-10-26,57,46,34,38,31,26,87,59,31,0.00,40.00,18,6,0,0.00
2013-10-27,57,49,44,41,35,29,87,59,41,0.00,40.00,11,6,0,0.02
2013-10-28,61,48,38,36,32,25,78,57,38,0.00,40.00,17,6,0,0.02
2013-10-29,51,41,33,35,29,24,86,62,38,0.00,40.00,9,3,0,0.00
2013-10-30,55,43,37,44,38,33,96,82,61,0.00,40.00,8,2,0,0.06
2013-10-31,64,52,38,61,50,38,99,92,80,0.00,40.00,12,4,0,0.06
2013-11-1,72,65,60,64,59,55,96,81,66,0.00,40.00,22,10,0,0.57
2013-11-2,69,59,51,54,46,41,89,66,37,0.00,40.00,7,2,0,0.00
2013-11-3,53,43,33,47,32,17,95,68,39,0.00,40.00,9,4,0,0.11
2013-11-4,44,36,30,25,21,16,79,55,33,0.00,40.00,8,3,0,0.00
2013-11-5,52,40,29,36,29,22,81,65,42,0.00,40.00,7,3,0,0.00
2013-11-6,62,52,42,51,42,34,87,71,49,0.00,40.00,12,5,0,0.00
2013-11-7,68,55,42,59,50,33,94,86,67,0.00,40.00,15,7,0,0.37
2013-11-8,49,42,36,35,28,23,76,58,48,0.00,40.00,22,8,0,0.02
2013-11-9,46,40,33,30,25,21,71,54,37,0.00,40.00,12,6,0,0.00
2013-11-10,59,48,43,43,37,30,88,67,47,0.00,40.00,18,6,0,0.06
2013-11-11,54,46,40,34,29,25,65,51,34,0.00,40.00,19,7,0,0.00
2013-11-12,49,37,29,40,26,16,92,66,51,0.00,40.00,16,6,0,0.20
2013-11-13,38,31,25,18,15,12,71,53,37,0.00,40.00,12,6,0,0.00
2013-11-14,53,43,30,26,22,16,60,43,32,0.00,40.00,12,5,0,0.00
2013-11-15,63,49,36,35,23,17,65,39,18,0.00,40.00,13,4,0,0.00
2013-11-16,62,49,41,37,31,22,81,52,22,0.00,40.00,9,3,0,0.00
2013-11-17,60,50,38,58,45,34,99,85,68,0.00,40.00,7,2,0,0.07
2013-11-18,68,61,49,63,49,33,99,69,42,0.00,40.00,18,7,0,0.31
2013-11-19,49,41,32,33,23,17,56,48,37,0.00,40.00,16,8,0,0.00
2013-11-20,44,35,29,17,15,12,59,45,28,0.00,40.00,12,4,0,0.00
2013-11-21,49,38,27,32,21,14,67,50,31,0.00,40.00,8,3,0,0.00
2013-11-22,48,45,42,47,42,32,98,89,68,0.00,40.00,6,3,0,0.31
2013-11-23,49,42,31,47,27,15,96,58,33,0.00,40.00,20,10,0,0.00
2013-11-24,31,25,21,18,4,-5,69,42,24,0.00,40.00,27,13,0,0.39
2013-11-25,35,26,17,18,3,-7,56,38,18,0.00,40.00,17,7,0,0.00
2013-11-26,44,38,32,43,24,18,98,59,43,0.00,40.00,13,5,0,0.12
2013-11-27,63,52,38,62,52,34,99,97,87,0.00,40.00,28,9,0,3.84
2013-11-28,38,32,26,34,17,6,87,55,34,0.00,40.00,24,10,0,0.06
2013-11-29,35,28,22,17,12,5,66,50,33,0.00,40.00,10,5,0,0.00
2013-11-30,35,28,18,24,16,9,69,61,51,0.00,40.00,7,3,0,0.00
2013-12-1,44,39,34,41,36,25,99,89,69,0.00,40.00,10,3,0,0.32
2013-12-2,42,38,37,40,38,36,99,97,91,0.00,40.00,6,2,0,0.01
2013-12-3,51,40,36,38,35,32,99,83,53,0.00,40.00,8,4,0,0.00
2013-12-4,46,38,33,31,29,27,86,71,52,0.00,40.00,10,4,0,0.01
2013-12-5,56,47,34,55,42,29,99,85,73,0.00,40.00,9,3,0,0.00
2013-12-6,57,50,35,56,45,32,99,86,54,0.00,40.00,9,4,0,0.39
2013-12-7,42,35,30,34,28,20,99,76,53,0.00,40.00,12,5,0,0.22
2013-12-8,32,30,25,21,17,13,70,58,48,0.00,40.00,6,3,0,0.00
2013-12-9,42,35,27,42,34,15,99,94,54,0.00,40.00,11,4,0,0.80
2013-12-10,37,32,26,35,30,17,98,90,65,0.00,40.00,14,5,0,0.10
2013-12-11,32,27,23,21,19,17,79,72,61,0.00,40.00,14,7,0,0.00
2013-12-12,26,23,17,19,6,1,77,50,33,0.00,40.00,15,6,0,0.00
2013-12-13,30,23,15,18,11,1,73,60,47,0.00,40.00,15,7,0,0.00
2013-12-14,31,18,11,30,8,-5,99,68,44,0.00,40.00,20,6,0,0.00
2013-12-15,37,29,22,36,28,22,99,97,84,0.00,40.00,26,7,0,1.48
2013-12-16,30,26,19,24,14,7,91,63,38,0.00,40.00,20,7,0,0.02
2013-12-17,22,17,8,22,11,0,99,80,55,0.00,40.00,9,4,0,0.00
2013-12-18,37,27,17,25,21,17,99,79,52,0.00,40.00,12,6,0,0.04
2013-12-19,45,36,27,29,24,21,79,65,47,0.00,40.00,14,6,0,0.09
2013-12-20,55,45,36,39,34,28,74,65,50,0.00,40.00,13,4,0,0.00
2013-12-21,59,51,44,50,45,35,92,81,68,0.00,40.00,10,5,0,0.00
2013-12-22,56,45,37,55,44,36,99,97,88,0.00,40.00,12,3,0,0.00
2013-12-23,37,36,34,36,35,34,99,99,99,0.00,40.00,7,3,0,1.04
2013-12-24,35,35,35,34,34,34,99,99,99,0.00,40.00,12,5,0,0.00
2013-12-25,35,35,35,34,34,34,99,99,99,0.00,40.00,15,6,0,0.00
2013-12-26,35,35,35,34,34,34,99,99,99,0.00,40.00,8,5,0,0.00
2013-12-27,35,35,35,34,34,34,99,99,99,0.00,40.00,12,6,0,0.00
2013-12-28,35,35,35,34,34,34,99,99,99,0.00,40.00,14,5,0,0.00
2013-12-29,35,35,35,34,34,34,99,99,99,0.00,40.00,12,4,0,2.03
2013-12-30,35,35,35,34,34,34,99,99,99,0.00,40.00,19,7,0,0.06
2013-12-31,35,35,35,34,34,34,99,99,99,0.00,40.00,9,5,0,0.00
2014-1-1,35,35,35,34,34,34,99,99,99,0.00,40.00,14,7,0,0.00